#timestamp,LO_Frequency,Hit,StdDev 
1561244415.5,286047000.3,N
1561244435.3,286047000.2,N
1561244455.2,286047002.7,N
1561244475.0,286047000.3,N
1561244475.9,286047000.3,N
1561244495.7,286047000.9,N
1561244515.6,286047002.3,N
1561244535.4,286047000.1,N
1561244555.3,286046999.8,N
1561244575.1,286047002.3,N
1561244576.0,286047002.3,N
1561244595.8,286046999.9,N
1561244615.7,286046999.8,N
1561244635.5,286047000.0,N
1561244655.3,286046999.8,N
1561244675.2,286047000.2,N
1561244695.0,286047000.4,N
1561244695.9,286047000.4,N
1561244715.8,286047000.8,N
1561244735.6,286047000.4,N
1561244755.4,286047000.2,N
1561244775.3,286047002.8,N
1561244795.1,286047000.1,N
1561244815.9,286046999.8,N
1561244835.7,286047000.1,N
1561244855.5,286047000.1,N
1561244875.4,286046999.8,N
1561244895.2,286047001.1,N
1561244915.0,286047000.3,N
1561244916.0,286047000.3,N
1561244935.8,286046998.2,N
1561244955.6,286047000.7,N
1561244975.5,286047001.0,N
1561244995.3,286047000.1,N
1561245015.1,286046999.8,N
1561245035.9,286047000.1,N
1561245055.7,286047000.1,N
1561245075.6,286046999.8,N
1561245095.4,286047000.1,N
1561245115.2,286046999.7,N
1561245135.1,286047001.2,N
1561245136.0,286047001.2,N
1561245155.8,286046999.2,N
1561245175.6,286046999.0,N
1561245195.5,286047000.5,N
1561245215.3,286047000.8,N
1561245235.2,286047000.6,N
1561245255.9,286046998.7,N
1561245275.7,286047000.6,N
1561245295.6,286047000.5,N
1561245315.4,286047000.2,N
1561245335.2,286047002.7,Y
1561245355.1,286047000.1,P
1561245356.0,286047000.1,N
1561245375.8,286047000.0,N
1561245395.7,286046999.9,N
1561245415.5,286047000.3,N
1561245435.3,286046999.9,N
1561245455.2,286046999.8,N
1561245475.0,286047002.6,Y
1561245475.9,286047002.6,P
1561245495.5,286047002.7,N
1561245515.4,286047002.0,N
1561245535.2,286047002.6,N
1561245555.0,286047000.0,N
1561245555.9,286047000.0,N
1561245575.8,286047000.1,N
1561245595.6,286047000.9,N
1561245615.5,286047000.2,N
1561245635.3,286046999.7,N
1561245655.1,286047000.0,N
1561245675.9,286047000.1,N
1561245695.7,286046999.9,N
1561245715.6,286046999.5,N
1561245735.4,286046999.1,N
1561245755.2,286046998.3,N
1561245775.1,286047001.2,N
1561245776.0,286047001.2,N
1561245795.8,286047000.7,N
1561245815.7,286046999.9,N
1561245835.5,286047000.3,N
1561245855.3,286046999.8,N
1561245875.2,286047000.2,N
1561245895.9,286046999.9,N
1561245915.7,286047000.0,N
1561245935.6,286047000.5,N
1561245955.4,286047000.7,N
1561245975.4,286047000.6,N
1561245995.3,286047000.0,N
1561246015.1,286047001.0,N
1561246035.9,286047001.0,N
1561246055.7,286047000.4,N
1561246075.5,286047000.0,N
1561246095.4,286046999.9,N
1561246115.2,286046999.7,N
1561246135.1,286047002.7,Y
1561246136.0,286047002.7,P
1561246155.8,286046999.7,N
1561246175.6,286046999.7,N
1561246195.5,286046999.7,N
1561246215.3,286047001.8,N
1561246235.1,286047001.6,N
1561246255.9,286047001.6,N
1561246275.7,286047002.5,N
1561246295.6,286047002.1,N
1561246315.4,286047002.2,N
1561246335.2,286047001.5,N
1561246355.1,286047001.8,N
1561246356.0,286047001.8,N
1561246375.8,286047001.4,N
1561246395.6,286047001.5,N
1561246415.5,286047001.4,N
1561246435.3,286047004.0,Y
1561246455.2,286047002.6,P
1561246475.9,286047002.8,P
1561246495.7,286047002.5,P
1561246515.6,286047002.7,Y
1561246535.4,286047000.8,P
1561246555.2,286047000.6,N
1561246575.1,286046998.2,N
1561246576.0,286046998.2,N
1561246595.8,286046998.2,N
1561246615.7,286046998.1,N
1561246635.5,286047001.1,N
1561246655.3,286046998.2,N
1561246675.2,286046998.7,N
1561246695.0,286046999.0,N
1561246695.9,286046999.0,N
1561246715.8,286046998.9,N
1561246735.6,286046998.8,N
1561246755.4,286046998.8,N
1561246775.3,286046999.4,N
1561246795.1,286046999.0,N
1561246815.8,286046998.5,N
1561246835.7,286046999.3,N
1561246855.5,286046997.0,N
1561246875.4,286046999.1,N
1561246895.2,286046999.3,N
1561246915.0,286046999.2,N
1561246915.9,286046999.2,N
1561246935.8,286046999.4,N
1561246955.6,286046997.7,N
1561246975.4,286046996.8,N
1561246995.3,286046995.3,Y
1561247015.1,286046995.0,P
1561247035.9,286046995.6,N
1561247055.7,286046995.8,N
1561247075.5,286046996.2,N
1561247095.4,286046993.4,Y
1561247115.2,286046998.8,P
1561247135.0,286046998.5,N
1561247136.0,286046998.5,N
1561247155.8,286046998.6,N
1561247175.6,286047000.7,N
1561247195.5,286047000.4,N
1561247215.3,286047000.9,N
1561247235.1,286046998.2,N
1561247255.9,286046999.6,N
1561247275.7,286046996.5,N
1561247295.6,286046999.5,N
1561247315.4,286046998.9,N
1561247335.2,286046999.2,N
1561247355.1,286046998.7,N
1561247356.0,286046998.7,N
1561247375.8,286046998.7,N
1561247395.6,286046999.4,N
1561247415.5,286046999.2,N
1561247435.3,286046998.1,N
1561247455.2,286047002.4,N
1561247475.9,286047000.3,N
1561247495.7,286047000.6,N
1561247515.6,286047002.7,N
1561247535.4,286047002.3,N
1561247555.2,286047002.3,N
1561247575.2,286047000.2,N
1561247595.1,286046999.8,N
1561247596.0,286046999.8,N
1561247615.8,286047001.8,N
1561247635.7,286047002.1,N
1561247655.5,286047001.8,N
1561247675.3,286047002.2,N
1561247695.2,286047002.7,N
1561247715.9,286047002.1,N
1561247735.7,286047000.1,N
1561247755.6,286047002.3,N
1561247775.4,286046999.9,N
1561247795.2,286046999.7,N
1561247815.1,286047000.1,N
1561247816.0,286047000.1,N
1561247835.8,286047001.5,N
1561247855.7,286047004.0,N
1561247875.5,286047001.6,N
1561247895.3,286047004.0,N
1561247915.2,286047004.4,N
1561247935.0,286047002.6,N
1561247935.9,286047002.6,N
1561247955.8,286047004.4,N
1561247975.6,286047002.0,N
1561247995.4,286047002.1,N
